Miscellaneous Local Product
Issued by NWS North Platte, NE

Home | Current Version | Previous Version | Graphics & Text | Print | Product List | Glossary On
Versions: 1 2 3 4 5 6 7 8 9 10 11 12 13 14 15 16 17 18 19 20 21 22 23 24 25 26 27 28 29 30 31 32 33 34 35 36 37 38 39 40 41 42 43 44 45 46 47 48 49 50
523
AXUS43 KLBF 252010
MISLBF


WESTERN AND NORTH CENTRAL NEBRASKA HOURLY WEATHER ROUNDUP
NATIONAL WEATHER SERVICE NORTH PLATTE NE
300 PM CDT WED APR 25 2018

NOTE: "FAIR" INDICATES FEW OR NO CLOUDS BELOW 12,000 FEET WITH NO
SIGNIFICANT WEATHER AND/OR OBSTRUCTIONS TO VISIBILITY.

NOTE: STATIONS NOT REPORTING VARIABLES SUCH AS SKY/WEATHER OR
PRESSURE ARE PROVIDED BY RAWS AND APRS NETWORKS AND ARE NOT UNDER
NATIONAL WEATHER SERVICE QUALITY CONTROL.

...OBSERVATIONS IN AND NEAR THE EASTERN PANHANDLE OF NEBRASKA...

CITY           SKY/WX    TMP DP  RH WIND       PRES   REMARKS
GORDON         FAIR      62  31  31 SW13G18   30.10F
CHADRON          N/A     65  24  21 SW13      30.08F HAZE
ALLIANCE       SUNNY     61  22  22 SW16      30.13F
SIDNEY         SUNNY     60  25  26 W10       30.17F
CRESCENT LAKE    N/A     60  23  24 SW8G16      N/A
$$

...OBSERVATIONS IN NORTHERN NEBRASKA AND FAR SOUTHERN SOUTH DAKOTA...

CITY           SKY/WX    TMP DP  RH WIND       PRES   REMARKS
WINNER         FAIR      62  29  28 S9        30.12F
AINSWORTH      SUNNY     58  28  32 SW10      30.14F
O`NEILL        SUNNY     60  29  30 SW3       30.16F
THEDFORD       SUNNY     60  25  26 W3        30.16F
BROKEN BOW     SUNNY     57  33  40 VRB5      30.16F
ORD            SUNNY     57  29  34 NE5       30.16F
ALBION         SUNNY     56  31  37 NE6       30.16F
VALENTINE NWR    N/A     57  23  27 SW8G15      N/A
HALSEY           N/A     59  20  22 W5          N/A
BUTTE            N/A     57  30  36 SW3         N/A
CHAMBERS         N/A     59  32  36 NW6         N/A
EWING            N/A     57  33  41 SW3         N/A
$$

...OBSERVATIONS IN SOUTHWEST NEBRASKA AND FAR NORTHEAST COLORADO...

CITY           SKY/WX    TMP DP  RH WIND       PRES   REMARKS
WRAY           FAIR      57  30  35 W6        30.19F
HOLYOKE        FAIR      61  32  33 W9        30.19F
IMPERIAL       SUNNY     58  30  34 SW8       30.18F
OGALLALA       SUNNY     59  31  34 W8        30.17F
NORTH PLATTE   SUNNY     60  29  30 MISG      30.16F
MCCOOK         SUNNY     59  32  36 N15       30.18F
LEXINGTON      SUNNY     56  32  40 CALM      30.18F
STAPLETON        N/A     58  29  33 CALM        N/A
GOTHENBURG       N/A     54  28  36 NW7         N/A
CALLAWAY         N/A     54  36  51 N8          N/A
$$

...OBSERVATIONS IN CENTRAL LINCOLN COUNTY AREA...

CITY           SKY/WX    TMP DP  RH WIND       PRES   REMARKS
N.P. AIRPORT   SUNNY     60  29  30 MISG      30.16F
N.P. DOWNTOWN    N/A     58  30  34 NW3         N/A
N.P. SOUTHEAST   N/A     59  27  29 N3          N/A
N.P. HILLCREST   N/A     56  27  32 W7          N/A
$$

...OBSERVATIONS ACROSS THE ROCKIES AND WESTERN HIGH PLAINS...

CITY           SKY/WX    TMP DP  RH WIND       PRES   REMARKS
SCOTTSBLUFF    SUNNY     63  26  24 W5        30.12F
CHEYENNE       SUNNY     60  24  25 VRB5      30.17F
DENVER         SUNNY     60  24  25 MISG      30.19F
BERTHOUD PASS  FAIR      30  19  64 NW16G22   30.43F WCI  19
MONARCH PASS   SUNNY     43   0  16 W15       30.53F
ASPEN          SUNNY     61  -2   8 NE7       30.24F
STEAMBOAT      FAIR      55  13  19 W7        30.26F
LARAMIE        SUNNY     57  16  20 VRB6      30.19F
CASPER         SUNNY     64  20  18 S23       30.10F
$$

...OBSERVATIONS ACROSS THE NORTHERN PLAINS...

CITY           SKY/WX    TMP DP  RH WIND       PRES   REMARKS
BISMARCK       PTSUNNY   66  25  21 SW20G30   29.94F
FARGO          FAIR      64  27  24 SW23      30.02F
PIERRE         MOSUNNY   65  27  23 S15G24    30.05F
SIOUX FALLS    MOSUNNY   58  24  27 MISG      30.13F
$$

...OBSERVATIONS ACROSS THE CENTRAL AND SOUTHERN PLAINS...

CITY           SKY/WX    TMP DP  RH WIND       PRES   REMARKS
GRAND ISLAND   SUNNY     56  32  40 W5        30.18F
KANSAS CITY    LGT RAIN  47  46  97 N10       30.13F FOG
DODGE CITY     CLOUDY    50  36  58 N15G24    30.22F
OKLAHOMA CITY  CLOUDY    51  44  77 NW21      30.16
DALLAS         CLOUDY    56  53  90 NW13      30.12S
AMARILLO       SUNNY     59  31  34 N18G26    30.23F
$$




USA.gov is the U.S. government's official web portal to all federal, state and local government web resources and services.